Simultaneous Nadir Overpasses (SNOs) Predictions

Prediction of SNOs between GOES-17 and NPP Satellite Orbit:

Table of predicted SNOs for the next 14.0 days since TLE Epoch: 8/3/2024
Index Date Time (GOES-17) GOES-17 Lat,Lon NPP Lat,Lon Distance(km) Time Diff (sec)
1 08/04/2024 08:39:35 -0.04,-104.68 0.78,-108.23 405.55 80
2 08/05/2024 08:18:11 -0.04,-104.69 -0.26,-103.71 111.06 80
3 08/06/2024 20:40:08 0.04,-104.71 -0.94,-109.02 491.32 80
4 08/07/2024 20:24:05 0.04,-104.72 0.11,-104.50 25.84 80
5 08/10/2024 08:27:09 -0.05,-104.73 0.06,-105.24 58.39 80
6 08/11/2024 08:05:44 -0.04,-104.73 -0.93,-100.71 458.45 80
7 08/12/2024 20:27:42 0.05,-104.76 -0.25,-106.02 144.15 80
8 08/13/2024 20:11:38 0.05,-104.76 0.81,-101.50 372.68 80
9 08/15/2024 08:33:25 -0.06,-104.76 0.41,-106.76 228.93 80
10 08/16/2024 08:12:02 -0.06,-104.76 -0.65,-102.24 287.48 80
